RYR20TE EIKN-EGGD

Flight info

Callsign RYR20TE
Flight time N/A
Altitude 31000
Route CON DCT ENJEX DCT ADHAV DCT AGCAT/N0359F230 Q63 BAJJA
Aircraft B38M/M-SADE3FGILRWY/SB1

Departure

Time 2026-04-30 14:52
Airport Ireland West Airport Knock (EIKN)

Arrival

Time N/A
Airport Bristol Airport (EGGD)
Time Latitude Longitude Altitude Speed Heading
2026-04-30 14:23 53.91345 -8.80998 646 ft 0 kts 259°
2026-04-30 14:42 53.91346 -8.80985 645 ft 4 kts 255°
2026-04-30 14:43 53.91358 -8.80947 646 ft 4 kts 219°
2026-04-30 14:43 53.91380 -8.80934 645 ft 3 kts 172°
2026-04-30 14:43 53.91383 -8.80935 645 ft 0 kts 169°
2026-04-30 14:47 53.91365 -8.80929 646 ft 7 kts 169°
2026-04-30 14:47 53.91288 -8.80903 645 ft 15 kts 169°
2026-04-30 14:48 53.91196 -8.80872 646 ft 12 kts 168°
2026-04-30 14:48 53.91137 -8.80944 647 ft 13 kts 257°
2026-04-30 14:48 53.91114 -8.81136 648 ft 21 kts 259°
2026-04-30 14:48 53.91078 -8.81443 643 ft 30 kts 258°
2026-04-30 14:49 53.91034 -8.81809 643 ft 33 kts 258°
2026-04-30 14:49 53.90990 -8.82173 646 ft 28 kts 258°
2026-04-30 14:49 53.90953 -8.82481 647 ft 23 kts 258°
2026-04-30 14:49 53.90918 -8.82752 646 ft 24 kts 255°
2026-04-30 14:50 53.90857 -8.83306 645 ft 22 kts 258°
2026-04-30 14:50 53.90824 -8.83523 646 ft 13 kts 229°
2026-04-30 14:51 53.90820 -8.83680 645 ft 3 kts 50°
2026-04-30 14:51 53.90821 -8.83645 646 ft 5 kts 95°
2026-04-30 14:51 53.90833 -8.83511 646 ft 21 kts 79°
2026-04-30 14:52 53.90920 -8.82770 646 ft 105 kts 78°
2026-04-30 14:52 53.91377 -8.79082 1265 ft 187 kts 82°
2026-04-30 14:52 53.91668 -8.76923 2315 ft 191 kts 83°
2026-04-30 14:53 53.90834 -8.72457 3538 ft 219 kts 147°
2026-04-30 14:53 53.89429 -8.71243 4312 ft 234 kts 146°
2026-04-30 14:54 53.86929 -8.67522 6206 ft 243 kts 139°
2026-04-30 14:54 53.84383 -8.63628 8075 ft 251 kts 140°
2026-04-30 14:55 53.81745 -8.59578 9821 ft 260 kts 140°
2026-04-30 14:55 53.80386 -8.57490 10524 ft 270 kts 140°
2026-04-30 14:55 53.77448 -8.52950 11544 ft 298 kts 139°
2026-04-30 14:56 53.74357 -8.48209 13271 ft 304 kts 139°
2026-04-30 14:56 53.71186 -8.43367 14975 ft 312 kts 139°
2026-04-30 14:57 53.69568 -8.40902 15795 ft 315 kts 139°
2026-04-30 14:57 53.66284 -8.35905 17253 ft 321 kts 139°
2026-04-30 14:58 53.62931 -8.30817 18570 ft 329 kts 139°
2026-04-30 14:58 53.61223 -8.28226 19150 ft 332 kts 140°
2026-04-30 14:58 53.57793 -8.23038 20381 ft 336 kts 140°
2026-04-30 14:59 53.54289 -8.17750 21651 ft 340 kts 140°
2026-04-30 15:00 53.48921 -8.09675 23461 ft 349 kts 140°
2026-04-30 15:00 53.45266 -8.04189 24488 ft 355 kts 140°
2026-04-30 15:01 53.41556 -7.98641 25447 ft 360 kts 140°
2026-04-30 15:01 53.40290 -7.96750 25763 ft 362 kts 140°
2026-04-30 15:01 53.35886 -7.90184 26828 ft 368 kts 140°
2026-04-30 15:02 53.33969 -7.87331 27271 ft 370 kts 140°
2026-04-30 15:02 53.32039 -7.84462 27750 ft 372 kts 140°
2026-04-30 15:03 53.26212 -7.75835 29544 ft 371 kts 141°
2026-04-30 15:03 53.22409 -7.70225 30590 ft 368 kts 141°
2026-04-30 15:04 53.18557 -7.64555 31074 ft 369 kts 141°
2026-04-30 15:04 53.12807 -7.56111 31096 ft 367 kts 141°